Regional Weather Roundup
Issued by NWS Kansas City/Pleasant Hill, MO

Home | Current Version | Previous Version | Graphics & Text | Print | Product List | Glossary Off
Versions: 1 2 3 4 5 6 7 8 9 10 11 12 13 14 15 16 17 18 19 20 21 22 23 24 25 26 27 28 29 30 31 32 33 34 35 36 37 38 39 40 41 42 43 44 45 46 47 48 49 50

000
ASUS43 KEAX 161810
RWREAX

WEATHER ROUNDUP FOR EASTERN KANSAS AND NORTHWEST MISSOURI
NATIONAL WEATHER SERVICE KANSAS CITY/PLEASANT HILL MO
100 PM CDT WED AUG 16 2017

KSZ040-057-103>105-MOZ028-029-037-043-161900-
...KANSAS CITY METROPOLITAN AREA...

CITY           SKY/WX    TMP DP  RH WIND       PRES   REMARKS
K.C. INTL      CLOUDY    83  73  72 SW12      29.79R
6HR MIN TEMP:  72; 6HR MAX TEMP:  83; 6HR PCP:  0.45;

K.C. DOWNTOWN  CLOUDY    85  72  65 S9        29.78F HX  91
6HR MIN TEMP:  72; 6HR MAX TEMP:  85; 6HR PCP:  0.93;

LEES SUMMIT    CLOUDY    83  75  77 VRB7      29.80F HX  90
6HR MIN TEMP:  71; 6HR MAX TEMP:  83; 6HR PCP:  0.16;

OLATHE - IXD   CLOUDY    83  70  64 VRB7      29.81R
6HR MIN TEMP:  73; 6HR MAX TEMP:  83; 6HR PCP:  0.29;

OLATHE - OJC   CLOUDY    82  70  66 S8        29.81S
6HR MIN TEMP:  72; 6HR MAX TEMP:  82; 6HR PCP:  0.04;

LAWRENCE       SUNNY     80  71  74 SW8       29.80R

$$

MOZ001>008-011>017-020>025-030>033-038>040-044>046-053-054-161900-
...NORTHERN AND CENTRAL MISSOURI...

CITY           SKY/WX    TMP DP  RH WIND       PRES   REMARKS
ST. JOSEPH     CLOUDY    80  76  87 SW10      29.78R
6HR MIN TEMP:  73; 6HR MAX TEMP:  80; 6HR PCP:  0.25;

MOSBY          CLOUDY    81  73  78 S7        29.78F
WARRENSBURG    CLOUDY    73  72  94 SE13      29.81F
WHITEMAN AFB   LGT RAIN  74  74 100 SE8       29.82F
6HR MIN TEMP:  72; 6HR MAX TEMP:  82; 6HR PCP:  0.78;

CLINTON        LGT RAIN  75  73  94 NE5       29.83F
SEDALIA        PTSUNNY   82  77  84 W3        29.87F THUNDER HX  90
6HR MIN TEMP:  72; 6HR MAX TEMP:  85; 6HR PCP:  0.30;

WARSAW         NOT AVBL
CHILLICOTHE      N/A     80  75  84 SE9       29.81F
6HR MIN TEMP:  72; 6HR MAX TEMP:  81; 6HR PCP:  0.20;

KIRKSVILLE     PTSUNNY   79  71  76 S12       29.89R
6HR MIN TEMP:  70; 6HR MAX TEMP:  82; 6HR PCP: TRACE;


$$

MOZ041-047>049-056>058-063>065-088>090-097-161900-
...EASTERN AND SOUTHERN MISSOURI...

CITY           SKY/WX    TMP DP  RH WIND       PRES   REMARKS
ST. LOUIS INTL PTSUNNY   86  73  65 S10       29.94F HX  93
6HR MIN TEMP:  75; 6HR MAX TEMP:  89; 6HR PCP: TRACE;

SPIRIT OF STL  CLOUDY    87  75  67 VRB3      29.91F HX  96
COLUMBIA       PTSUNNY   81  75  82 S13       29.89F
JEFFERSON CITY CLOUDY    82  78  88 SE8       29.87F HX  91
ROLLA          PTSUNNY   86  75  69 S16       29.92F HX  95
OSAGE BEACH    PTSUNNY   87  75  67 S16       29.88F HX  96
SPRINGFIELD    MOSUNNY   85  75  72 S20G29    29.90F HX  93
BRANSON        PTSUNNY   81  77  89 S6        29.96F
JOPLIN         RAIN      76  76 100 NW10      29.90R
WEST PLAINS    PTSUNNY   84  74  71 SW9       29.99F HX  91

$$

IAZ060-094-KSZ022-034>040-054-083-096-NEZ052-066-093-161900-
...KANSAS...SOUTHEAST NEBRASKA AND IOWA...

CITY           SKY/WX    TMP DP  RH WIND       PRES   REMARKS
TOPEKA         SUNNY     80  71  74 SW6       29.81S
6HR MIN TEMP:  69; 6HR MAX TEMP:  80; 6HR PCP:  0.11;

MANHATTAN      MOSUNNY   80  69  69 VRB6      29.83F
EMPORIA        SUNNY     81  70  69 S23       29.80F
CHANUTE        CLOUDY    79  71  76 SE8       29.85F
WICHITA        MOSUNNY   84  74  71 SE12      29.82F HX  91
OMAHA          CLOUDY    79  66  64 S9        29.77F
LINCOLN        MOSUNNY   80  66  62 W15       29.81S
FALLS CITY     MOSUNNY   80  69  69 W10       29.79S
LAMONI         CLOUDY    76  72  87 SE10G21   29.78F
DES MOINES     CLOUDY    78  73  84 SE9       29.77F

$$




USA.gov is the U.S. government's official web portal to all federal, state and local government web resources and services.